This is the latest recevied weather packets stored in our database for station/object FRA001-13. If no packets are shown the sender has not sent any weather packets the latest 1 day(s).
| Time | Temp. | Humidity | Pressure | Rain* | Wind** | Luminosity | Snow |
|---|---|---|---|---|---|---|---|
| 1778179803 | 16.67° C | 70% | 1010.6 hPa | 0 mm | - | 9 W/m² | - |
| 1778179504 | 16.67° C | 69% | 1010.6 hPa | 0 mm | - | 12 W/m² | - |
| 1778179204 | 16.67° C | 68% | 1010.6 hPa | 0 mm | - | 16 W/m² | - |
| 1778178903 | 17.22° C | 67% | 1010.5 hPa | 0 mm | - | 21 W/m² | - |
| 1778178604 | 17.22° C | 66% | 1010.8 hPa | 0 mm | - | 24 W/m² | - |
| 1778178304 | 17.78° C | 65% | 1010.6 hPa | 0 mm | - | 30 W/m² | - |
| 1778178003 | 17.78° C | 63% | 1010.5 hPa | 0 mm | - | 41 W/m² | - |
| 1778177703 | 18.33° C | 62% | 1010.3 hPa | 0 mm | - | 56 W/m² | - |
| 1778177403 | 18.33° C | 61% | 1010.6 hPa | 0 mm | - | 71 W/m² | - |
| 1778177103 | 18.33° C | 60% | 1010.5 hPa | 0 mm | - | 89 W/m² | - |
| 1778176804 | 18.33° C | 59% | 1010.5 hPa | 0 mm | - | 69 W/m² | - |
| 1778176504 | 18.89° C | 59% | 1010.6 hPa | 0 mm | - | 110 W/m² | - |
| 1778176204 | 18.33° C | 59% | 1010.4 hPa | 0 mm | - | 121 W/m² | - |
| 1778175903 | 18.89° C | 56% | 1010.5 hPa | 0 mm | - | 99 W/m² | - |
| 1778175603 | 18.89° C | 59% | 1010.3 hPa | 0 mm | - | 151 W/m² | - |
| 1778175304 | 18.89° C | 58% | 1010.3 hPa | 0 mm | - | 169 W/m² | - |
| 1778175003 | 18.33° C | 59% | 1010.5 hPa | 0 mm | - | 102 W/m² | - |
| 1778174703 | 18.89° C | 59% | 1010.5 hPa | 0 mm | - | 98 W/m² | - |
| 1778174403 | 18.89° C | 60% | 1010.5 hPa | 0 mm | - | 109 W/m² | - |
| 1778174103 | 18.89° C | 58% | 1010.5 hPa | 0 mm | - | 117 W/m² | - |
| 1778173804 | 18.89° C | 57% | 1010.7 hPa | 0 mm | - | 113 W/m² | - |
| 1778173504 | 18.89° C | 57% | 1010.4 hPa | 0 mm | - | 177 W/m² | - |
| 1778173204 | 18.89° C | 60% | 1010.7 hPa | 0 mm | - | 169 W/m² | - |
| 1778172903 | 18.33° C | 60% | 1010.5 hPa | 0 mm | - | 104 W/m² | - |
| 1778172603 | 19.44° C | 57% | 1010.6 hPa | 0 mm | - | 98 W/m² | - |
* Rain latest hour (hover to see other rain measurements)
** Current wind speed in m/s (hover to see current wind gust speed)